Location: B?ogocice
(50.2413°N, 20.2361°E)
Time: 22:55:34
(UTC+00:00)

ALOS - Pass Details

Date: 15 June 2024
Orbit: 672 x 675 km, 98.0° (Epoch: 18 July)

Event Time Altitude Azimuth Distance (km) Brightness Sun altitude
Rises 01:25:34 0° 15° (NNE) 3,039 7.0 -7.8°
Reaches altitude 10° 01:27:49 10° 18° (NNE) 2,120 6.1 -7.6°
Maximum altitude 01:32:27 73° 103° (ESE) 710 2.5 -7.1°
Drops below altitude 10° 01:37:02 10° 188° (S) 2,100 4.3 -6.6°
Enters shadow 01:38:22 - 190° (S) 2,639 4.8 -6.5°
